Location: Unspecified
(0.0000°N, 0.0000°E)
Time: 03:20:20
(UTC+00:00)

Envisat - Pass Details

Date: 04 March 2021
Orbit: 764 x 766 km, 98.1° (Epoch: 24 February)

Event Time Altitude Azimuth Distance (km) Brightness Sun altitude
Rises 04:34:33 0° 33° (NNE) 3,215 6.6 -24.1°
Reaches altitude 10° 04:37:08 10° 44° (NE) 2,293 5.9 -23.5°
Maximum altitude 04:41:24 28° 102° (ESE) 1,410 5.1 -22.4°
Drops below altitude 10° 04:45:41 10° 160° (SSE) 2,302 5.8 -21.4°
Sets 04:48:17 0° 171° (S) 3,230 6.4 -20.7°
